Home   Weather   Weiz   Past weeks

Flag for Austria Past Weather in Weiz, Styria, Austria — Yesterday and Last 2 Weeks

Now
63 °F

Overcast.


Feels Like: 63 °F
Forecast: 56 / 70 °F
Wind: 5 mph from Northwest

Location: Graz-Thalerhof-Flughafen

Current Time: Jul 24, 2017 at 11:03:44 pm

Latest Report: Jul 24, 2017 at 10:00 pm


Visibility: 31 mi

Pressure: 29.67 "Hg

Humidity: 81%

Dew Point: 57 °F

Location of WeizLocation

Past Weather in Weiz — Graph

°F

Weiz Temperature Yesterday

Maximum temperature yesterday: 86 °F (at 2:00 pm)
Minimum temperature yesterday: 63 °F (at 5:00 am)
Average temperature yesterday: 73 °F

High & Low Weather Summary for the Past Weeks

 TemperatureHumidityPressure
High92 °F (Jul 10, 5:00 pm)96% (Jul 24, 3:00 am)30.24 "Hg (Jul 24, 3:00 am)
Low49 °F (Jul 16, 5:00 am)27% (Jul 20, 4:00 pm)29.64 "Hg (Jul 24, 7:00 pm)
Average70 °F62%29.96 "Hg
* Reported Jul 9 9:00 pm — Jul 24 9:00 pm, Weiz. Weather by CustomWeather, © 2017

Note: Actual official high and low records may vary slightly from our data, if they occured in-between our weather recording intervals... More about our weather records

Advertising

Weiz Weather History for the Previous 24 Hours

Scroll right to see more
 ConditionsComfort  
Time TempWeatherWind HumidityBarometerVisibility
9:00 pm
Mon, Jul 24
64 °FSprinkles. Overcast.3 mph88%29.67 "Hg7 mi
8:00 pm67 °FRain showers. Partly sunny.5 mph85%29.64 "Hg28 mi
7:00 pm69 °FPartly sunny.N/A77%29.64 "Hg28 mi
6:00 pm69 °FRain showers. Partly sunny.3 mph82%29.65 "Hg16 mi
5:00 pm71 °FPartly sunny.N/A72%29.66 "Hg22 mi
4:00 pm70 °FPartly sunny.N/A70%29.67 "Hg22 mi
3:00 pm66 °FPartly sunny.N/A80%29.70 "Hg22 mi
2:00 pm64 °FLow clouds.N/A86%29.74 "Hg25 mi
1:00 pm62 °FLow clouds.N/A89%29.75 "Hg25 mi
12:00 pm61 °FLow clouds.5 mph87%29.81 "Hg2 mi
11:00 am65 °FSprinkles. Low clouds.N/A89%29.78 "Hg1 mi
10:00 am66 °FRain showers. Low clouds.N/A91%29.80 "Hg11 mi
9:00 am65 °FLow clouds.N/A92%29.83 "Hg10 mi
8:00 am64 °FLow clouds.N/A94%29.87 "Hg11 mi
6:00 am65 °FSprinkles. Low clouds.7 mph93%29.88 "Hg8 mi
5:00 am66 °FLight rain. Low clouds.N/A95%29.87 "Hg4 mi
4:00 am65 °FOvercast.N/A96%29.89 "Hg3 mi
3:00 am65 °FOvercast.N/A96%29.92 "Hg3 mi
2:00 am66 °FOvercast.N/A94%29.94 "Hg5 mi
1:00 am66 °FRain showers. Overcast.N/A94%29.97 "Hg7 mi
12:00 am66 °FRain showers. Overcast.N/A92%29.99 "Hg7 mi
11:00 pm
Sun, Jul 23
66 °FOvercast.N/A93%29.98 "Hg16 mi
Weather by CustomWeather, © 2017

See weather overviewHow to use our weather pages